Torna al catalogo

DELTA 1 DEB

AttivoSSO
NORAD 3974·DEBRIS·🇺🇸 United States

Lanciato Aug 16, 1968 da Vandenberg Space Force Base

Loading…

Prossimi Passaggi (prossime 24 ore)

TLE

AggiornatoSource: Space-Track

Epoca: Sep 13, 2026, 05:51 UTC

1  3974U 68069E   26256.24400295 -.00000033  00000-0  78451-4 0  9995
2  3974 101.8488 351.8239 0035355  22.2616   3.3547 12.53284764658289

Traccia DELTA 1 DEB in tempo reale con AllMySat

Download on the App Store